Ocoee 3 Observed Data For Previous 48 Hours

Caption
Day and Hour Reservoir Elevation (behind dam)* Tailwater Elevation (below dam)* Average Hourly Discharge*
12/10/2018 2 AM EST 1,429.52 1,123.47 2,022
12/10/2018 3 AM EST 1,429.68 1,121.73 1,809
12/10/2018 4 AM EST 1,429.81 1,120.96 1,813
12/10/2018 5 AM EST 1,429.92 1,121.29 1,817
12/10/2018 6 AM EST 1,430.00 1,121.16 1,814
12/10/2018 7 AM EST 1,430.07 1,121.16 1,818
12/10/2018 8 AM EST 1,430.12 1,120.99 1,815
12/10/2018 9 AM EST 1,430.15 1,121.10 1,818
12/10/2018 10 AM EST 1,430.17 1,121.36 1,815
12/10/2018 11 AM EST 1,430.17 1,120.93 1,818
12/10/2018 12 PM EST 1,430.15 1,120.83 1,816
12/10/2018 1 PM EST 1,430.18 1,121.02 1,819
12/10/2018 2 PM EST 1,430.38 1,121.01 1,816
12/10/2018 3 PM EST 1,430.71 1,121.02 1,819
12/10/2018 4 PM EST 1,431.03 1,120.83 1,819
12/10/2018 5 PM EST 1,431.22 1,121.00 1,826
12/10/2018 6 PM EST 1,431.31 1,120.87 1,824
12/10/2018 7 PM EST 1,431.32 1,120.92 1,826
12/10/2018 8 PM EST 1,431.28 1,120.68 1,824
12/10/2018 9 PM EST 1,431.22 1,120.77 1,826
12/10/2018 10 PM EST 1,431.16 1,121.00 1,823
12/10/2018 11 PM EST 1,431.09 1,120.71 1,824
12/11/2018 12 AM EST 1,431.01 1,120.76 1,825
12/11/2018 1 AM EST 1,430.95 1,120.77 1,823
12/11/2018 2 AM EST 1,430.87 1,120.71 1,860
12/11/2018 3 AM EST 1,430.78 1,120.84 1,852
12/11/2018 4 AM EST 1,430.68 1,120.94 1,854
12/11/2018 5 AM EST 1,430.58 1,120.89 1,852
12/11/2018 6 AM EST 1,430.47 1,120.87 1,853
12/11/2018 7 AM EST 1,430.35 1,120.89 1,851
12/11/2018 8 AM EST 1,430.22 1,121.02 1,853
12/11/2018 9 AM EST 1,430.08 1,120.86 1,851
12/11/2018 10 AM EST 1,429.93 1,120.86 1,853
12/11/2018 11 AM EST 1,429.79 1,120.62 1,851
12/11/2018 12 PM EST 1,429.83 1,121.05 1,859
12/11/2018 1 PM EST 1,430.06 1,120.82 1,867
12/11/2018 2 PM EST 1,430.25 1,120.85 2,210
12/11/2018 3 PM EST 1,430.46 1,121.71 2,217
12/11/2018 4 PM EST 1,430.68 1,121.86 2,221
12/11/2018 5 PM EST 1,430.90 1,121.90 2,222
12/11/2018 6 PM EST 1,431.12 1,121.86 2,224
12/11/2018 7 PM EST 1,431.33 1,121.68 2,225
12/11/2018 8 PM EST 1,431.53 1,121.91 2,236
12/11/2018 9 PM EST 1,431.72 1,121.96 2,233
12/11/2018 10 PM EST 1,431.91 1,121.75 2,235
12/11/2018 11 PM EST 1,432.09 1,121.89 2,234
12/12/2018 12 AM EST 1,432.25 1,121.80 2,237
12/12/2018 1 AM EST 1,432.42 1,121.69 2,235
12/12/2018 2 AM EST 1,432.58 1,121.90 2,242

Elevations are in feet above sea level. Discharges are in cubic feet per second and are reported at the end of the hour.